Weather History for Lincoln, NE

Change the Weather History Date:

Saturday, January 26, 2013

  Actual Average Record
Temperature  
Mean Temperature 38 °F 25 °F  
Max Temperature 58 °F 36 °F 68 °F (2002)
Min Temperature 17 °F 14 °F -17 °F (1936)
Degree Days  
Heating Degree Days 27 40  
Month to date heating degree days 1043 1056  
Since 1 July heating degree days 3471 3501  
Cooling Degree Days 0 0  
Month to date cooling degree days 0 0  
Year to date cooling degree days 0 0  
Moisture  
Dew Point 20 °F    
Average Humidity 58    
Maximum Humidity 92    
Minimum Humidity 23    
Precipitation  
Precipitation 0.00 in 0.02 in 0.81 in (1944)
Month to date precipitation 0.29 0.52  
Year to date precipitation 0.29 0.52  
Snow  
Snow 0.00 in 0.20 in - ()
Month to date snowfall 1.2 4.4  
Since 1 July snowfall 6.3 13.1  
Snow Depth 0.00 in    
Sea Level Pressure  
Sea Level Pressure 30.16 in    
Wind  
Wind Speed 9 mph (SE)    
Max Wind Speed 23 mph    
Max Gust Speed 29 mph    
Visibility 9 miles    
Events      
T = Trace of Precipitation, MM = Missing Value Source: NWS Daily Summary

Daily Weather History Graph

Daily Weather History Graph

Search for Another Location

Airport:

Trip Planner

Search our weather history database for the weather conditions in past years. The results will help you decide how hot, cold, wet, or windy it might be!

Date:

Astronomy

Jan. 26, 2013 Rise Set
Actual Time 7:42 AM CST 5:37 PM CST
Civil Twilight 7:12 AM CST 6:06 PM CST
Nautical Twilight 6:39 AM CST 6:40 PM CST
Astronomical Twilight 6:07 AM CST 7:12 PM CST
Moon 5:33 PM CST (1/26) 7:00 AM CST (1/26)
Length of Visible Light 10h 53m
Length of Day
9h 55m
Full, 100% of the Moon is Illuminated
Jan 26
Full
Jan 26
Full
Feb 3
Last Quarter
Feb 10
New
Feb 17
First Quarter

Hourly Weather History & Observations

Time (CST) Temp. Windchill Dew Point Humidity Pressure Visibility Wind Dir Wind Speed Gust Speed Precip Events Conditions
12:54 AM 23.0 °F 17.0 °F 19.9 °F 88% 30.28 in 9.0 mi NE 4.6 mph - N/A   Clear
1:54 AM 19.9 °F 13.4 °F 18.0 °F 92% 30.27 in 7.0 mi NE 4.6 mph - N/A   Clear
2:54 AM 19.9 °F 14.9 °F 17.1 °F 89% 30.28 in 7.0 mi ENE 3.5 mph - N/A   Clear
3:54 AM 24.1 °F 18.2 °F 19.0 °F 81% 30.26 in 8.0 mi East 4.6 mph - N/A   Clear
4:54 AM 23.0 °F 17.0 °F 18.0 °F 81% 30.25 in 8.0 mi ESE 4.6 mph - N/A   Clear
5:54 AM 18.0 °F 11.1 °F 14.0 °F 84% 30.26 in 7.0 mi East 4.6 mph - N/A   Clear
6:54 AM 18.0 °F 12.7 °F 15.1 °F 88% 30.26 in 7.0 mi East 3.5 mph - N/A   Clear
7:54 AM 19.0 °F - 16.0 °F 88% 30.27 in 6.0 mi Calm Calm - N/A   Clear
8:54 AM 26.1 °F 19.4 °F 21.0 °F 81% 30.27 in 7.0 mi ESE 5.8 mph - N/A   Clear
9:54 AM 30.0 °F 21.7 °F 21.9 °F 72% 30.25 in 8.0 mi SSE 9.2 mph - N/A   Clear
10:54 AM 35.1 °F 28.6 °F 23.0 °F 61% 30.25 in 9.0 mi SSE 8.1 mph - N/A   Clear
11:54 AM 39.0 °F 32.8 °F 24.1 °F 55% 30.22 in 9.0 mi SSE 9.2 mph - N/A   Clear
12:54 PM 48.0 °F - 25.0 °F 41% 30.16 in 10.0 mi SE 11.5 mph - N/A   Clear
1:54 PM 55.0 °F - 21.0 °F 27% 30.11 in 10.0 mi South 15.0 mph 24.2 mph N/A   Clear
2:54 PM 57.0 °F - 21.0 °F 25% 30.07 in 10.0 mi South 20.7 mph - N/A   Clear
3:54 PM 57.0 °F - 19.0 °F 23% 30.06 in 10.0 mi South 17.3 mph 25.3 mph N/A   Clear
4:54 PM 53.1 °F - 19.9 °F 27% 30.04 in 10.0 mi South 12.7 mph - N/A   Clear
5:54 PM 46.9 °F - 19.9 °F 34% 30.05 in 10.0 mi SSE 10.4 mph - N/A   Clear
6:54 PM 46.0 °F 41.0 °F 21.0 °F 37% 30.06 in 10.0 mi SSE 10.4 mph - N/A   Clear
7:54 PM 45.0 °F 39.7 °F 21.9 °F 40% 30.06 in 10.0 mi SSE 10.4 mph - N/A   Mostly Cloudy
8:54 PM 44.1 °F 37.7 °F 21.9 °F 42% 30.04 in 10.0 mi SSE 12.7 mph - N/A   Clear
9:54 PM 41.0 °F 33.5 °F 23.0 °F 49% 30.04 in 10.0 mi SSE 13.8 mph - N/A   Clear
10:54 PM 41.0 °F 34.7 °F 24.1 °F 51% 30.03 in 10.0 mi SSE 10.4 mph - N/A   Overcast
11:54 PM 42.1 °F 35.2 °F 24.1 °F 49% 30.01 in 10.0 mi SSE 12.7 mph - N/A   Overcast